Location: Hope
(40.9110°N, 74.9680°W)
Time: 00:46:32
(UTC-04:00)

Envisat - Pass Details

Date: 31 January 2019
Orbit: 764 x 766 km, 98.1° (Epoch: 22 October)

Event Time Altitude Azimuth Distance (km) Brightness Sun altitude
Rises 06:37:44 0° 26° (NNE) 3,239 6.4 -6.8°
Reaches altitude 10° 06:40:29 10° 41° (NE) 2,308 5.8 -6.3°
Maximum altitude 06:44:33 24° 94° (E) 1,557 5.8 -5.6°
Drops below altitude 10° 06:48:34 10° 147° (SSE) 2,294 6.4 -4.9°
Sets 06:51:17 0° 161° (SSE) 3,214 6.8 -4.4°
